Theta_e
313 312 313 311 311 311 311 311 311 311 311 311 311 311 311 311 311 311 311 311 311 312 312 313 313 314 314 314 314 314 313 309 306 303 301 305 310 318 319 323 323 321 321 310 305 304 300 300 302 300 303 303 300 300 299 302 300 301 297 294 292 293 292 296 295 297 297 296 300 300 298 300 304 312 315 320 318 319 318 321 325 329 330 332 336 340 341 342
312 312 312 312 311 312 312 312 311 311 311 311 311 311 311 311 311 311 311 311 311 312 313 313 314 314 314 314 314 314 311 308 304 303 303 312 322 322 327 326 326 326 319 308 303 300 300 299 299 299 302 301 299 298 299 299 300 298 293 294 292 293 296 299 298 298 297 298 300 300 299 298 305 312 311 313 313 316 316 320 326 326 330 335 337 338 339 340
311 312 312 312 312 311 311 311 311 311 311 311 311 311 311 311 311 312 312 312 312 312 313 313 314 314 314 314 314 314 310 304 304 304 310 322 320 323 326 327 328 327 312 307 304 303 301 300 299 300 298 299 298 298 299 298 299 297 297 293 294 297 297 296 298 299 299 300 299 299 299 301 307 306 310 313 312 315 315 318 323 324 324 329 333 336 337 339
311 312 312 312 311 311 311 312 312 312 311 311 311 311 310 310 311 311 312 312 312 313 313 313 314 314 314 314 314 312 308 303 302 304 310 321 326 324 325 327 328 315 307 304 303 302 300 301 300 302 299 298 297 296 297 298 298 296 296 294 295 296 295 299 298 299 300 298 298 298 298 300 302 305 313 312 311 311 315 321 321 323 325 329 333 334 337 336
311 311 311 312 312 313 313 313 313 313 313 312 311 311 311 311 311 311 312 312 313 313 313 313 313 314 314 314 313 312 302 297 299 311 313 332 330 325 326 326 327 312 312 301 302 301 302 300 300 299 299 297 297 297 297 297 298 297 296 297 298 295 295 300 300 299 298 297 297 297 298 300 304 310 313 313 310 310 315 319 318 328 329 330 332 333 336 334
311 311 312 312 313 313 313 313 313 313 313 313 312 312 311 311 311 312 312 312 312 312 313 313 313 313 314 314 311 307 301 290 302 307 336 329 326 327 327 329 324 303 303 303 302 300 301 299 300 299 297 297 296 295 296 296 297 294 296 295 296 298 296 299 299 298 296 298 298 297 299 300 304 309 312 313 311 307 305 308 319 330 332 334 335 334 333 332
311 312 312 312 313 313 313 313 313 313 313 313 312 312 311 311 311 311 311 311 312 312 312 313 313 313 313 312 308 304 301 301 306 309 330 328 328 328 330 330 316 304 305 303 302 302 299 299 300 297 297 295 295 295 297 296 296 296 295 295 299 297 296 299 298 298 297 296 298 299 298 298 304 306 309 309 305 303 308 313 327 331 332 334 332 333 332 332
311 312 312 312 312 313 313 313 314 313 314 313 313 312 312 312 312 312 311 312 311 311 312 312 313 313 313 309 305 301 300 302 308 316 333 328 328 327 314 304 305 305 306 304 301 300 299 299 299 297 297 296 296 295 295 296 295 295 294 296 297 295 298 299 298 296 295 297 299 297 298 298 300 303 307 310 307 305 314 324 329 331 331 331 331 331 331 330
311 312 312 312 312 313 313 313 314 314 313 314 314 313 313 312 311 311 311 311 311 311 312 312 312 313 313 309 302 300 299 307 309 320 326 323 315 306 307 306 304 306 301 299 301 300 300 296 299 299 297 296 296 296 298 296 295 295 297 296 297 298 299 298 297 297 297 297 297 298 298 297 298 298 307 304 306 311 321 326 329 330 329 329 330 330 329 329
311 311 312 312 312 313 313 313 313 313 313 313 313 313 312 312 311 311 311 311 311 311 311 312 313 311 308 306 298 299 303 311 317 316 311 308 303 304 304 304 304 302 303 300 299 301 300 300 301 301 301 298 297 297 295 296 296 297 297 297 298 299 296 296 295 297 295 297 297 298 298 297 298 298 302 303 308 315 321 324 328 329 328 329 329 329 330 329
311 312 312 312 312 312 313 313 313 313 313 314 313 314 313 312 311 311 311 311 311 311 311 311 312 310 304 302 300 298 307 309 314 311 304 302 304 306 302 301 303 302 302 299 301 301 302 302 302 302 301 298 297 297 296 297 297 296 297 296 297 295 294 295 296 297 297 298 296 299 297 297 298 299 299 300 308 313 318 321 324 327 327 327 327 327 326 326
311 311 311 312 312 312 313 313 313 314 314 314 313 314 313 312 311 311 311 311 311 311 311 311 311 308 306 299 297 301 308 307 314 311 304 302 303 302 301 302 303 303 302 300 301 302 303 304 302 302 297 299 297 297 297 298 297 297 295 295 297 296 297 296 296 297 296 297 296 298 298 297 298 298 298 302 308 311 317 319 322 323 322 323 323 322 322 323
311 311 311 312 312 312 312 313 313 313 314 314 313 313 313 313 312 312 311 311 310 310 309 310 311 308 304 301 301 305 307 308 312 309 307 306 305 304 304 302 302 303 304 303 302 302 303 303 304 300 301 300 297 295 297 298 296 295 296 293 295 295 295 297 296 297 297 297 295 297 292 296 297 298 298 301 308 311 314 316 318 319 318 319 320 319 319 320
311 311 311 312 311 312 312 313 313 313 313 314 313 313 313 313 312 312 312 310 311 311 312 312 310 307 301 298 303 304 306 309 310 307 306 309 305 303 303 304 303 302 303 302 302 302 302 303 303 302 300 300 298 301 298 297 296 296 293 295 292 292 292 297 295 296 298 296 296 300 293 295 298 298 299 302 308 311 312 313 315 315 315 316 317 317 317 317
311 311 311 311 311 312 312 312 313 313 313 313 313 312 312 312 312 312 312 312 311 310 311 312 308 300 301 302 306 312 320 308 307 307 308 304 303 301 302 304 304 303 304 303 304 303 303 303 303 300 298 300 299 297 295 294 294 293 292 291 291 292 293 296 296 296 297 298 298 299 294 295 297 296 296 300 307 309 310 311 312 313 313 315 316 316 316 315
311 311 310 310 311 311 311 312 312 312 312 312 312 311 312 312 312 312 311 311 308 310 309 307 304 302 298 297 306 322 314 306 308 310 307 306 304 303 302 303 304 304 304 304 305 305 303 302 299 297 298 298 296 295 295 294 294 293 294 291 290 292 292 293 296 296 296 296 298 297 293 295 296 296 297 298 306 307 309 309 311 311 311 314 315 315 315 313
310 310 310 310 310 311 311 311 311 311 311 310 310 310 310 310 311 312 312 311 311 310 309 304 307 305 300 302 307 304 304 307 307 308 305 305 305 302 302 301 301 301 301 303 305 304 302 300 299 298 298 295 292 295 291 291 290 292 293 293 289 291 293 293 298 297 300 297 297 296 295 296 296 297 296 298 303 307 307 308 309 310 311 313 315 315 314 313
310 310 310 310 310 310 310 310 310 310 310 310 309 309 310 311 312 311 309 308 309 308 306 309 306 300 298 303 300 302 305 305 307 305 305 306 304 303 303 302 301 299 301 300 301 299 298 298 299 295 298 298 298 295 289 286 288 290 293 292 292 290 290 292 292 295 299 296 296 294 294 296 295 297 297 299 298 305 308 308 308 309 309 311 313 314 314 313
310 310 310 310 310 310 310 310 309 309 309 309 309 312 312 311 310 309 305 306 297 300 298 300 300 296 292 299 301 304 306 307 304 305 303 304 304 304 304 301 300 301 297 297 297 299 299 301 300 296 292 294 294 293 291 291 291 292 294 293 292 292 292 293 295 295 297 296 294 294 295 296 296 297 298 298 300 303 306 307 307 307 307 309 311 312 313 313
310 310 310 310 310 310 310 309 309 308 308 306 306 307 307 305 303 303 305 303 300 301 300 300 299 300 301 302 303 307 308 305 303 301 303 304 304 303 300 300 301 300 299 297 297 300 299 295 292 292 294 296 296 297 297 293 293 292 291 292 292 293 294 294 293 295 296 294 294 297 297 294 297 297 299 299 299 300 304 305 306 306 307 307 309 311 312 313
310 310 310 310 310 310 310 309 308 307 307 306 303 305 303 299 297 297 302 302 304 302 301 301 301 301 302 303 304 306 304 305 303 303 302 310 304 303 298 298 298 297 295 292 296 300 299 293 294 296 298 298 296 296 296 294 295 295 293 292 292 291 293 295 295 296 298 295 294 294 294 297 298 299 300 301 298 299 302 304 305 306 307 308 308 310 312 314
309 310 310 310 310 310 310 309 308 307 307 304 304 303 303 305 307 308 304 299 303 302 302 302 303 302 305 305 307 308 305 302 303 304 303 303 300 299 296 296 295 294 294 294 295 297 294 291 295 298 296 297 296 296 296 297 294 293 294 293 292 293 292 295 294 296 296 295 296 295 296 298 300 299 300 301 302 303 303 304 306 306 307 307 307 309 311 312
309 309 310 310 310 310 310 309 308 308 305 303 305 305 305 309 309 308 307 301 299 302 302 300 302 301 303 306 307 309 302 301 300 303 301 302 299 299 296 295 295 294 293 295 292 292 290 292 298 295 296 299 296 296 296 295 296 294 292 292 292 292 292 291 297 296 297 297 296 296 294 298 299 300 299 300 301 303 304 300 301 305 307 307 308 309 310 311
309 309 309 310 310 309 309 308 305 305 305 303 302 306 308 308 307 308 306 300 298 304 302 304 303 303 302 302 307 306 302 302 301 301 305 302 299 296 296 293 291 292 293 292 295 292 291 296 297 295 297 299 298 295 296 295 293 294 295 293 293 292 294 294 294 296 296 296 296 295 295 296 297 297 298 299 299 299 301 300 301 301 301 307 309 309 312 312
309 309 309 309 309 309 309 307 305 305 304 303 304 307 307 310 311 308 308 301 299 302 307 303 304 304 306 310 308 305 303 299 302 303 303 301 295 296 295 294 295 291 291 290 291 290 292 293 297 297 294 295 297 294 295 297 292 294 296 297 296 297 295 293 295 295 294 293 295 292 288 288 294 296 296 298 299 300 299 299 301 302 301 301 303 306 310 312
309 309 309 309 308 308 307 304 307 306 302 306 307 307 307 310 311 311 306 294 292 297 301 297 304 300 309 303 305 301 301 299 302 303 301 302 306 299 295 294 294 292 288 290 292 294 293 294 295 297 297 296 295 295 297 297 293 291 294 297 297 296 297 296 294 295 289 287 293 293 287 285 295 294 297 296 296 299 302 302 300 299 301 300 302 305 307 309
308 309 308 308 308 306 301 303 302 304 304 305 308 309 310 312 313 313 303 290 288 298 294 301 299 300 305 302 303 300 292 295 301 300 300 304 301 302 296 294 294 292 292 296 294 290 294 293 295 296 297 295 296 293 296 296 293 291 296 294 294 295 295 296 295 294 292 293 295 293 292 287 287 293 295 293 295 297 299 300 301 299 299 300 302 303 305 307
308 308 308 308 307 306 301 304 303 302 305 307 307 311 312 313 311 313 298 280 283 298 293 297 299 305 303 302 300 298 299 298 295 298 300 301 301 299 297 293 293 294 293 293 287 293 295 295 293 294 295 293 292 296 298 297 295 294 294 294 294 295 298 296 294 293 291 291 288 291 291 287 287 293 295 296 294 296 297 298 299 300 300 300 300 300 301 303
308 308 307 307 306 308 305 303 303 305 307 309 312 313 314 312 310 301 287 280 294 294 306 296 305 301 298 300 298 292 296 298 295 298 299 300 299 298 295 294 293 292 290 294 291 294 291 294 296 295 294 292 296 294 296 296 295 294 293 292 291 292 293 295 293 292 290 288 285 289 291 286 287 292 294 294 294 295 296 297 298 299 299 300 300 301 301 301
308 308 307 307 304 305 305 304 303 308 310 313 313 312 314 314 306 292 283 278 298 289 296 297 297 294 295 294 294 294 297 295 295 296 298 297 298 298 293 296 293 293 293 293 292 292 292 295 296 295 294 295 295 294 294 296 296 294 293 294 292 292 292 291 291 290 289 283 286 290 287 288 283 290 291 292 293 292 294 297 299 300 299 299 300 299 299 299
308 308 307 307 303 306 305 302 305 307 312 314 311 312 312 302 294 283 277 287 294 294 294 293 291 293 291 293 292 292 292 291 295 296 296 296 296 295 295 293 297 293 292 293 293 293 292 292 295 297 298 294 294 291 293 292 293 294 294 293 292 290 292 290 289 291 282 281 287 285 287 289 282 287 292 294 295 295 295 295 296 297 297 298 299 299 299 299
307 307 306 305 305 310 304 302 306 310 313 311 313 309 305 293 292 283 283 297 286 291 290 290 290 289 290 290 290 290 291 294 293 294 292 292 294 293 294 291 293 287 288 288 289 293 293 294 291 292 300 297 294 293 292 293 292 293 293 293 288 285 284 281 285 280 282 281 286 286 287 286 286 291 294 294 295 296 297 296 296 296 296 297 298 298 299 300
306 307 308 307 307 307 308 307 309 313 312 313 306 303 295 285 282 287 288 291 287 292 290 291 289 289 287 291 290 289 291 291 292 292 291 291 292 292 287 289 292 292 285 289 287 288 290 291 289 293 293 298 296 291 290 290 293 293 293 290 287 282 278 273 280 280 282 286 286 286 288 284 290 291 294 294 295 296 296 297 297 296 296 297 297 298 298 299
306 306 308 308 307 308 311 314 312 313 311 308 306 300 289 283 284 295 290 291 290 291 289 290 291 287 288 290 289 289 290 290 291 292 291 292 291 291 293 290 289 291 292 288 286 286 283 286 291 291 291 294 295 295 295 295 292 293 292 293 290 288 282 275 280 277 280 283 285 287 285 284 285 290 294 295 296 296 296 296 296 297 296 297 297 298 299 299
305 306 306 307 307 309 310 310 310 312 309 306 296 291 282 282 285 288 289 290 290 291 290 288 288 288 288 288 287 290 290 290 290 291 291 291 289 288 289 291 291 290 290 287 287 285 285 286 293 292 292 292 293 292 293 292 291 290 290 292 290 287 291 284 284 285 284 283 282 284 284 288 289 293 295 297 296 295 295 295 295 296 296 297 298 298 298 299
307 308 305 309 311 317 313 311 310 310 309 300 291 283 282 288 288 288 289 292 290 290 289 289 288 288 284 287 288 288 292 290 290 291 289 289 288 290 289 290 291 290 290 287 290 285 284 286 290 291 291 293 293 292 292 293 287 291 289 289 290 294 292 282 281 281 280 282 281 285 286 289 293 293 295 295 294 293 294 294 295 295 296 298 297 298 299 299
310 309 310 313 312 311 314 312 310 308 302 295 289 283 290 290 291 290 296 290 290 290 288 288 289 286 286 285 287 287 289 291 289 288 287 288 288 289 290 293 292 292 292 292 288 289 287 287 291 290 291 292 292 292 293 291 294 290 287 291 291 293 295 289 282 280 281 279 280 283 283 285 286 284 293 293 292 292 293 293 294 296 296 296 296 297 298 299
307 309 315 308 307 308 314 310 312 306 302 297 286 293 293 290 292 291 291 290 291 290 289 287 287 287 284 285 286 287 290 287 288 289 287 288 287 291 289 290 293 292 293 294 290 289 290 285 291 288 289 293 292 293 293 293 293 293 292 295 290 285 284 288 284 275 276 275 279 282 282 284 287 288 290 290 291 292 292 294 294 294 294 294 295 296 298 300
302 306 303 303 308 305 310 311 310 306 300 294 286 290 294 293 295 291 291 292 290 290 289 287 289 287 287 285 287 284 286 286 286 286 284 287 286 290 290 290 292 293 293 291 291 291 291 285 288 290 290 292 292 293 287 291 293 293 293 292 290 293 290 285 285 287 285 277 274 279 282 282 289 290 292 292 293 293 293 293 293 294 294 294 295 296 297 299
305 303 301 309 305 305 310 312 306 301 297 288 291 292 295 291 292 293 291 292 291 292 290 290 287 289 287 288 286 288 285 286 287 287 285 288 287 289 290 292 289 292 291 292 292 292 288 290 282 290 290 290 289 291 290 292 290 290 291 289 290 290 289 289 289 286 285 279 278 278 277 284 291 293 294 293 293 294 294 293 294 294 294 294 295 296 297 299
299 302 302 308 304 303 307 302 300 297 293 292 293 293 290 290 292 292 291 293 292 292 291 290 290 289 290 287 287 287 286 285 285 287 286 287 287 285 289 290 289 290 292 292 294 293 289 287 284 289 289 289 290 290 289 290 292 292 291 289 290 287 286 282 281 285 285 284 277 277 278 287 292 293 296 294 295 295 294 294 295 293 293 295 296 297 297 298
298 291 300 306 304 305 304 296 290 289 292 291 291 290 291 298 290 290 291 291 292 292 291 291 287 290 287 289 289 286 287 285 285 285 285 287 287 289 290 290 289 290 290 290 292 294 293 290 288 285 287 289 291 290 290 290 291 289 290 291 290 292 291 286 279 283 285 285 284 285 280 284 294 295 295 295 295 295 294 293 293 293 294 295 296 296 298 299
296 294 305 304 303 302 299 290 291 290 291 290 291 290 290 290 289 289 290 290 291 290 292 292 291 290 288 289 287 286 286 287 285 286 285 285 287 291 291 290 290 289 290 293 291 295 299 288 286 287 289 289 289 288 289 288 289 289 288 287 289 289 291 289 288 289 285 283 282 282 278 285 293 295 295 294 293 293 293 292 293 294 295 296 296 297 298 299
294 295 302 307 303 302 298 287 288 287 291 293 291 291 290 289 291 291 290 289 289 292 290 289 289 288 289 286 289 287 287 285 286 286 286 285 288 289 291 290 292 294 294 294 291 296 286 289 287 283 282 285 288 289 289 289 289 289 288 288 285 287 288 289 289 288 284 285 285 282 278 284 293 294 293 292 292 292 292 292 294 295 295 296 296 296 298 299
296 296 297 300 300 303 295 291 290 284 289 289 290 290 290 290 289 290 291 289 289 289 289 289 288 289 289 288 287 286 288 285 286 286 285 285 289 291 290 289 292 293 295 298 299 296 287 288 286 279 276 274 274 276 280 284 286 288 287 286 286 287 289 287 284 285 281 283 283 282 282 288 292 291 292 291 291 292 293 293 293 294 295 295 296 297 297 298
292 285 291 294 294 295 292 292 291 290 287 289 286 288 287 290 291 290 289 289 288 289 288 288 287 290 288 288 288 288 287 288 286 287 287 287 288 288 290 289 291 292 298 299 296 296 288 287 288 287 283 281 283 285 286 285 287 285 287 286 287 286 286 289 288 283 281 284 283 285 285 287 288 291 290 291 292 293 294 293 294 294 294 295 295 296 297 297
293 289 285 286 292 292 289 291 290 290 288 290 285 287 287 286 287 288 290 289 289 289 289 287 287 288 287 288 286 286 285 286 287 288 287 287 287 288 288 288 289 293 297 294 296 290 289 285 288 287 287 287 287 286 285 286 284 285 285 287 286 285 287 288 284 283 288 283 280 285 286 284 288 291 291 291 292 293 294 295 294 294 295 295 295 295 295 297
288 287 290 290 286 285 287 288 289 290 290 290 287 288 284 285 287 286 289 289 288 290 288 287 288 286 286 287 288 285 285 285 285 284 286 285 285 288 288 288 289 290 292 290 294 292 288 283 285 285 285 286 285 286 285 285 285 286 286 287 287 288 285 285 284 288 287 283 281 285 287 284 288 291 293 294 294 294 294 294 295 295 294 294 295 295 296 296
292 289 291 291 288 287 287 288 289 287 289 290 287 287 284 285 285 285 284 287 287 289 287 283 286 285 286 286 287 286 285 283 282 284 285 285 285 287 287 287 289 287 289 290 290 291 289 284 287 285 285 285 286 286 285 284 284 284 285 286 287 288 287 287 288 288 287 287 288 287 285 284 290 292 294 295 295 296 295 294 294 294 294 295 295 295 295 296
288 289 289 290 289 289 289 287 287 288 287 288 285 286 284 284 284 285 286 285 284 287 288 288 286 285 286 286 287 286 285 286 285 283 285 286 285 285 286 287 286 289 288 287 288 290 287 283 287 286 282 283 285 285 284 285 285 284 286 286 286 285 285 286 286 286 285 285 286 284 282 283 290 292 293 291 291 293 293 293 295 295 294 294 295 295 296 295
290 291 291 289 287 287 290 286 286 286 286 286 286 286 286 284 284 284 285 286 285 285 285 285 286 286 285 286 287 286 286 285 286 287 288 287 284 288 286 286 287 287 286 287 288 289 288 283 285 285 279 280 283 284 285 285 284 283 284 285 285 284 282 284 282 286 285 283 285 284 281 283 289 292 290 292 293 293 293 294 294 294 294 295 295 296 295 295
292 292 291 288 284 285 286 284 283 285 284 285 287 286 285 285 284 285 283 285 285 286 285 286 286 286 285 287 285 285 287 287 288 289 288 289 288 287 287 288 288 287 286 286 286 285 286 284 281 282 278 278 282 284 283 283 283 279 280 283 285 286 287 288 287 286 288 288 284 281 283 289 291 291 289 291 293 293 293 293 294 293 294 294 295 295 295 295
Wind_Speed
11 10 9 9 8 8 8 9 9 8 9 8 8 8 8 8 8 8 7 7 7 7 7 8 9 10 11 12 12 14 11 9 9 3 3 9 6 6 9 1 10 9 3 2 2 4 3 3 3 4 2 1 2 1 2 0 1 1 1 2 2 1 4 3 5 5 3 5 9 10 4 6 3 3 4 7 8 11 8 6 3 6 5 6 9 16 16 15
10 10 10 9 9 9 9 8 8 8 9 9 8 8 8 8 8 8 7 7 7 8 8 8 9 10 11 11 12 11 10 6 7 5 14 6 5 9 7 8 9 11 8 3 6 4 6 2 1 1 3 2 2 1 1 2 2 2 2 1 4 4 3 2 1 3 4 8 10 9 5 5 3 5 4 4 11 13 11 5 5 8 9 10 14 17 17 15
10 10 10 10 9 8 8 8 8 8 8 8 8 9 9 8 8 8 8 8 7 8 9 9 10 11 11 11 12 8 9 3 3 2 2 4 10 8 8 9 8 8 2 5 3 4 3 3 2 3 2 3 4 2 1 2 1 1 2 2 4 4 4 4 4 8 5 9 11 9 6 3 2 2 3 6 9 11 14 12 8 10 12 14 16 17 16 15
10 10 10 9 9 9 9 9 9 9 9 9 9 9 8 8 8 8 8 8 8 8 8 9 10 10 11 11 11 8 4 4 2 1 3 1 7 10 11 9 6 5 7 5 4 4 4 6 4 2 2 3 1 1 2 2 2 2 2 4 2 2 3 3 5 7 8 4 5 5 6 2 2 3 4 11 10 5 5 8 15 16 16 17 18 17 16 15
10 10 10 10 10 10 9 9 8 9 9 9 9 8 8 9 8 7 8 8 8 8 9 10 10 11 11 12 10 3 2 1 1 3 3 5 6 12 11 9 7 4 4 7 6 5 4 3 2 4 2 3 1 1 0 2 1 4 4 2 4 2 5 9 7 5 4 2 4 3 7 1 2 2 8 13 11 9 8 11 5 11 19 20 21 18 16 15
11 11 11 11 11 11 10 10 9 9 10 9 9 8 8 8 8 8 8 8 8 8 9 9 10 11 11 11 3 2 2 3 1 3 7 4 12 13 11 9 8 7 8 5 3 2 3 3 2 2 1 2 2 2 1 1 2 5 2 4 5 4 7 4 3 2 2 5 7 7 2 2 2 4 8 9 0 4 2 3 4 10 15 20 18 19 18 17
12 11 11 11 11 11 11 11 10 10 10 9 9 9 8 8 8 8 8 8 8 8 9 9 10 11 11 6 1 2 2 4 4 3 6 9 10 12 12 10 8 6 5 6 2 1 2 3 2 2 3 2 0 2 0 1 1 3 3 1 6 6 7 7 9 4 4 1 8 2 2 5 3 6 5 5 2 3 5 4 10 12 13 16 19 18 22 20
12 12 11 11 11 11 11 11 11 10 9 8 8 8 8 8 7 7 7 7 7 8 9 9 9 11 10 4 1 1 1 2 3 3 5 11 11 12 11 6 7 5 5 5 5 4 3 4 4 3 3 2 1 2 2 2 1 3 3 2 5 2 6 7 5 5 4 8 9 1 3 3 4 3 8 8 1 3 3 8 15 14 15 12 15 17 14 14
12 12 12 12 12 12 11 11 11 10 10 9 9 8 8 7 7 7 7 7 7 8 8 9 9 8 6 3 0 0 3 4 1 1 5 8 7 8 9 6 1 7 4 4 1 4 4 1 2 3 1 1 3 2 1 3 3 5 6 2 3 7 7 5 7 6 6 3 1 3 3 3 1 1 3 3 4 1 6 9 15 16 16 14 14 12 14 14
12 12 12 12 12 12 11 11 11 10 9 8 8 7 7 7 7 6 7 7 7 7 7 8 9 5 2 2 1 1 1 2 1 3 4 6 6 5 4 7 7 8 7 2 4 4 2 4 1 5 4 3 3 2 2 3 1 4 5 6 8 8 5 3 1 3 2 2 2 1 3 2 2 3 2 4 3 4 8 10 12 16 16 15 13 12 12 15
12 12 12 12 11 12 11 11 11 10 10 9 8 8 7 6 6 6 6 6 6 5 6 7 6 7 1 1 2 2 0 2 1 3 5 3 7 6 6 5 6 7 5 3 3 5 2 3 4 3 1 2 3 0 3 1 2 3 5 5 7 5 2 4 5 2 1 2 3 0 2 3 3 0 2 2 1 2 10 9 10 11 13 13 13 13 10 9
13 12 12 12 12 11 11 11 10 10 9 9 8 8 7 6 5 5 5 5 6 6 5 5 4 3 1 1 2 1 1 1 4 4 4 4 4 2 3 4 6 5 7 5 4 4 5 4 3 2 1 2 2 1 2 2 2 1 1 6 6 4 2 5 4 3 4 2 1 2 2 2 2 1 3 3 1 4 8 9 9 10 10 10 10 9 9 9
12 12 12 12 11 11 11 11 10 10 9 9 8 7 7 7 6 5 4 4 3 3 2 4 4 2 2 1 4 3 1 2 5 4 3 2 4 4 3 3 3 4 3 5 2 5 6 4 2 0 1 2 1 2 2 1 2 1 2 2 5 4 2 7 2 2 1 1 2 2 3 1 2 3 4 3 3 7 9 9 8 7 7 8 9 9 8 7
12 12 12 11 11 11 11 10 10 10 9 9 9 8 7 7 6 4 4 4 3 4 4 3 1 1 1 3 2 2 4 3 6 4 3 0 4 2 3 2 2 2 3 3 1 1 4 0 2 2 1 4 1 1 1 2 3 2 2 1 2 2 2 7 4 8 4 1 3 2 3 3 3 1 4 3 3 9 9 9 9 8 7 8 8 9 10 10
12 12 11 11 11 11 10 10 10 10 9 9 9 8 7 7 7 5 3 4 3 3 3 1 1 1 1 4 2 2 8 4 4 4 7 6 5 1 2 2 2 1 2 2 1 1 2 5 3 1 1 1 1 4 1 2 3 2 1 1 0 2 2 5 3 7 5 2 4 1 2 3 4 6 5 2 2 5 8 9 10 10 9 9 9 10 10 9
12 12 11 11 10 11 10 10 10 9 9 9 9 10 9 8 7 5 3 2 1 0 3 2 1 1 1 2 3 5 4 1 1 2 5 5 6 2 2 4 2 2 3 2 1 2 3 2 3 1 2 2 2 2 2 1 1 3 2 0 1 1 2 2 5 3 3 3 4 3 3 3 1 5 3 3 3 4 6 8 9 9 9 9 10 9 8 7
12 11 11 11 10 10 10 9 9 8 8 8 9 9 6 4 3 4 4 3 2 1 1 0 1 1 2 1 0 1 1 2 1 2 2 1 3 5 5 3 2 1 5 3 3 4 2 2 2 1 5 3 0 0 1 2 0 2 2 2 1 1 3 2 5 5 7 6 1 5 2 4 2 5 2 2 1 5 7 9 9 9 9 10 9 9 9 8
11 11 11 11 10 9 9 8 7 7 7 7 7 2 4 6 7 8 5 2 1 1 1 2 1 2 3 2 2 3 2 3 2 2 2 1 3 4 4 2 1 2 3 4 2 2 3 1 2 1 1 2 1 2 0 1 1 1 3 2 2 1 2 3 2 5 7 5 1 1 1 8 4 5 1 3 2 4 5 6 8 8 8 8 9 9 10 9
11 10 10 10 9 9 8 7 6 6 5 5 4 8 8 8 3 1 1 1 1 0 1 1 1 2 4 0 3 4 2 2 2 2 3 6 1 3 4 3 5 1 1 2 1 1 2 2 1 1 1 2 2 1 0 1 2 1 3 2 2 0 2 1 0 2 5 2 2 0 1 4 4 5 3 2 3 5 5 3 3 5 5 6 8 8 8 9
11 10 10 9 8 7 6 5 5 4 3 1 1 3 2 0 1 1 1 0 3 4 3 2 2 2 6 4 3 5 3 2 2 2 3 2 8 5 4 2 3 5 2 1 1 3 2 2 0 1 2 3 2 3 1 3 4 4 2 3 2 1 2 3 3 1 2 1 2 1 2 3 5 5 4 1 2 4 6 7 6 7 7 8 9 10 10 10
11 10 9 8 7 6 5 5 3 3 1 2 2 1 3 1 3 3 5 5 4 4 5 4 5 5 5 2 3 4 4 2 3 1 2 2 3 8 2 2 3 2 2 1 2 2 1 1 2 5 5 2 0 4 5 6 2 2 3 3 2 2 1 2 2 3 2 2 1 1 2 3 3 3 3 2 1 6 8 6 7 9 9 8 11 12 13 10
11 10 8 7 6 5 4 3 2 1 2 2 2 3 2 2 2 0 1 4 3 3 3 5 2 5 3 4 3 2 3 3 1 0 1 4 2 3 1 2 2 3 1 1 0 1 2 2 3 4 2 5 4 4 3 3 5 2 3 2 2 3 4 6 2 1 2 2 0 2 3 3 2 4 3 3 3 2 4 7 10 11 10 10 11 11 10 6
11 9 8 7 6 5 3 3 1 2 2 2 2 3 3 1 0 1 2 1 5 1 2 1 3 5 5 2 2 4 2 3 1 2 6 3 2 2 5 2 3 2 1 1 3 1 1 1 4 3 6 6 4 3 6 5 3 3 2 3 4 2 1 1 3 1 4 3 2 1 3 4 3 3 2 3 3 4 1 2 4 6 10 12 14 13 11 12
11 10 7 7 5 4 3 2 5 1 3 2 2 3 2 1 2 4 3 2 4 5 3 4 3 2 4 1 3 6 3 1 3 2 1 4 4 3 4 4 4 1 3 3 5 4 4 4 4 6 3 4 4 3 5 4 3 0 3 2 1 2 2 2 2 4 1 2 1 3 4 3 3 2 3 1 3 4 3 4 2 4 7 5 4 6 8 12
11 9 7 5 5 4 0 1 1 2 2 2 3 4 2 2 3 5 2 2 1 2 1 0 2 4 2 1 2 3 1 1 6 1 1 5 6 4 1 1 2 2 1 2 4 0 5 1 5 4 2 2 5 3 5 4 3 2 6 8 6 4 4 3 2 2 1 1 6 5 4 1 1 3 2 2 3 1 2 2 4 3 3 4 8 11 9 10
12 9 7 5 4 4 2 1 1 3 1 1 2 2 1 2 3 4 3 2 2 3 3 1 1 3 2 1 2 1 2 2 0 2 1 2 3 3 3 2 1 0 4 4 2 1 1 1 3 5 5 3 3 3 3 6 3 2 3 8 5 5 3 4 3 0 2 3 3 2 3 2 1 2 2 3 4 6 1 2 4 1 2 5 8 8 8 11
12 9 7 5 4 2 1 1 0 2 1 1 2 2 2 1 2 5 2 3 2 1 1 1 1 1 1 0 3 3 1 2 1 2 1 0 2 2 3 1 1 2 2 3 1 2 2 2 4 4 4 4 3 2 5 8 6 4 1 7 7 6 5 4 2 1 1 0 1 2 2 3 3 4 2 2 5 3 3 5 5 1 1 4 6 7 9 10
11 8 6 5 3 3 1 2 1 1 2 2 2 3 3 0 3 3 1 3 0 2 2 2 1 1 0 3 2 2 2 3 2 1 1 2 1 2 1 5 5 4 4 1 4 1 3 4 4 2 1 2 3 2 6 8 4 1 2 2 6 4 3 5 2 3 1 2 4 2 1 2 2 3 1 4 1 4 4 8 9 8 5 5 7 8 10 11
11 8 5 3 3 3 0 1 1 3 2 3 3 3 1 3 4 3 1 1 1 2 2 2 2 2 5 0 3 2 2 3 2 1 3 3 6 1 2 3 4 6 2 2 5 2 4 5 1 4 3 5 2 1 7 9 5 1 6 7 6 7 6 2 2 3 1 2 5 2 1 4 4 2 2 2 1 4 5 10 9 9 11 10 8 7 8 11
11 8 4 3 1 1 2 1 4 3 2 4 3 1 2 1 1 0 1 1 2 1 0 3 2 3 3 2 2 7 1 3 1 5 4 2 4 5 4 2 4 3 2 3 2 3 3 4 1 2 4 2 4 3 1 1 3 7 4 7 5 5 3 2 4 1 2 2 6 1 1 2 7 0 1 2 2 4 7 7 6 9 11 12 12 11 9 10
12 8 4 6 3 1 3 1 4 2 3 4 1 3 3 5 2 3 1 1 2 3 1 4 2 3 5 3 2 4 2 4 6 4 1 3 1 5 2 1 4 3 1 3 3 5 4 2 3 2 2 3 3 5 3 2 4 5 2 3 4 3 1 3 2 2 2 3 1 3 1 3 6 2 2 1 5 5 6 7 10 11 11 12 12 12 12 11
12 7 5 8 3 1 3 1 1 1 3 2 3 4 2 2 2 1 1 3 1 2 3 3 0 2 3 1 3 6 3 2 3 5 3 2 1 1 2 2 1 3 1 2 2 3 4 3 0 5 2 3 3 5 3 2 1 3 3 3 3 1 1 1 2 3 4 4 3 3 1 2 8 3 3 3 3 4 3 5 8 10 12 12 12 13 11 10
12 7 8 8 4 2 5 2 2 3 3 2 4 2 2 2 2 1 1 2 0 1 1 1 2 3 1 3 5 4 2 5 4 2 2 1 1 3 1 2 1 2 5 1 2 4 5 3 1 2 1 1 3 5 4 3 5 5 5 3 5 3 1 2 1 1 3 3 1 1 1 4 2 3 0 2 3 4 5 6 7 8 10 11 11 10 10 10
9 5 5 6 8 5 3 4 2 6 4 4 2 4 5 2 1 1 2 2 2 2 2 2 2 1 5 3 3 4 2 0 5 4 3 1 3 2 2 3 2 3 0 2 2 1 3 4 1 1 1 2 4 6 5 0 6 4 2 6 5 5 4 2 4 4 5 2 2 0 2 2 3 3 1 3 3 5 5 5 5 6 6 6 7 7 9 10
5 4 2 2 3 6 9 6 5 1 1 2 6 4 3 2 1 2 1 2 1 2 1 2 1 3 2 3 4 0 2 0 3 3 5 3 2 1 3 3 5 3 2 2 1 1 2 5 4 1 1 2 2 1 2 6 4 2 1 3 4 5 4 8 1 3 2 2 1 2 2 0 1 3 4 1 2 2 4 4 4 5 5 5 4 9 11 11
2 1 1 1 1 2 2 2 4 4 2 4 4 2 2 2 1 3 1 1 2 1 3 2 5 3 1 1 1 2 4 2 5 2 2 3 1 2 1 2 2 1 1 0 2 3 1 3 2 5 3 2 1 1 1 2 6 4 3 5 1 4 6 5 2 3 1 1 3 2 2 2 2 2 3 1 1 2 3 3 5 8 9 8 10 10 11 11
2 1 1 2 1 5 2 3 3 4 5 4 4 1 3 1 4 4 1 2 1 2 2 1 2 2 1 0 1 4 3 2 1 3 2 0 1 3 3 1 1 0 2 2 2 2 3 4 3 0 5 3 2 0 2 4 0 7 4 5 5 1 3 2 3 1 0 4 2 1 2 3 4 2 6 4 2 1 2 5 5 7 9 10 9 9 10 10
3 2 1 1 4 5 1 2 1 4 3 2 1 1 1 2 2 2 1 1 1 1 2 2 1 1 1 1 0 2 3 2 3 2 1 1 1 2 1 2 2 1 6 2 2 1 3 4 3 1 2 2 3 2 3 4 4 3 2 4 4 2 4 1 2 1 2 2 2 2 1 3 6 3 6 8 6 3 2 4 5 8 9 9 9 10 10 11
2 2 2 1 3 4 1 3 3 3 1 3 1 1 3 1 1 1 1 2 1 2 1 2 1 1 3 2 2 1 1 1 0 0 1 0 2 1 3 0 2 1 4 2 2 2 0 2 3 1 1 4 3 1 4 2 4 4 4 5 2 2 2 5 3 1 2 3 1 2 3 4 7 3 10 9 8 4 2 2 4 4 6 5 6 7 8 9
4 0 1 1 6 4 1 2 3 3 2 2 4 2 0 3 1 3 1 3 1 2 1 2 1 2 2 2 2 1 1 1 2 2 1 0 1 3 2 2 2 7 2 3 1 1 0 1 2 0 2 2 4 0 4 2 4 4 4 1 2 2 2 2 2 2 4 2 3 1 3 4 3 4 9 10 8 6 4 4 3 3 3 3 4 5 6 7
1 1 1 2 8 4 1 6 3 2 3 1 0 0 1 1 1 1 1 2 1 1 2 3 5 2 3 2 3 2 2 1 2 3 3 1 2 2 1 2 0 3 4 0 3 1 1 1 2 3 4 4 2 2 2 1 1 1 3 5 5 7 5 5 5 3 1 4 3 4 5 2 1 1 3 7 5 5 3 2 3 3 3 2 3 4 5 5
2 2 1 3 7 1 3 2 3 1 3 4 3 3 2 1 2 3 2 2 2 2 2 4 1 2 2 2 1 3 3 2 1 1 2 3 1 1 2 2 2 2 1 1 1 0 0 1 0 4 6 6 2 1 2 2 2 1 2 1 1 1 1 4 5 3 0 0 2 0 0 2 3 3 3 0 1 2 2 1 1 3 2 2 3 4 4 5
4 3 4 5 8 2 4 4 1 0 2 0 3 1 2 0 2 1 0 3 1 1 1 1 2 3 2 1 1 1 3 2 4 2 1 0 2 2 1 4 2 2 2 2 1 1 2 1 1 4 3 3 2 2 2 0 3 2 2 2 2 4 2 4 4 1 3 4 2 1 3 1 3 1 1 1 1 1 1 1 2 3 2 2 2 4 5 5
2 3 4 3 6 2 3 4 2 1 0 2 3 1 1 1 1 3 3 2 2 3 1 1 1 1 2 0 2 2 2 2 0 1 1 0 2 1 1 5 3 1 0 1 0 1 2 0 2 2 2 4 3 2 2 1 1 1 1 1 1 1 2 1 3 2 2 6 5 3 10 2 5 3 2 1 2 4 4 3 2 5 3 2 2 3 3 4
2 2 2 7 9 5 3 1 3 2 1 2 1 3 4 2 2 1 1 2 3 1 1 2 1 1 2 1 3 2 4 1 1 1 1 1 0 2 1 4 4 2 1 2 3 0 2 1 2 3 4 5 4 3 3 1 1 2 1 1 0 2 5 3 4 3 5 1 3 4 3 1 2 1 2 2 2 2 2 3 2 1 2 2 1 2 3 4
3 1 4 4 7 6 5 1 3 2 3 2 2 1 0 1 2 3 2 2 0 1 3 1 0 2 3 1 2 1 1 2 1 1 2 2 1 2 1 3 2 2 5 4 4 2 1 1 3 5 7 8 7 6 2 1 1 3 2 1 2 2 2 1 2 2 5 2 5 3 2 0 5 7 7 4 3 5 6 6 6 6 3 2 0 1 2 3
1 4 2 3 5 6 3 3 4 2 1 0 1 1 2 2 3 2 2 2 4 1 2 3 1 1 1 2 1 2 0 0 3 1 1 1 2 2 3 1 2 3 8 1 3 2 2 1 2 3 6 7 2 5 1 1 5 5 5 6 4 3 3 5 4 5 4 2 8 4 5 3 4 7 7 5 5 5 5 6 6 4 3 3 2 1 1 0
3 0 1 1 1 2 3 3 7 3 3 1 1 1 1 2 3 1 4 4 1 3 1 1 4 4 1 2 4 2 1 1 2 1 0 1 2 2 0 2 1 6 6 2 2 0 1 2 1 2 3 3 3 5 1 3 5 6 5 5 7 5 4 7 4 4 8 6 10 5 9 6 3 6 8 8 9 10 11 9 5 2 2 3 3 3 2 1
3 0 1 2 0 0 1 4 2 2 6 5 2 3 2 3 3 1 1 5 4 3 5 0 2 4 2 1 0 1 2 2 0 0 2 1 1 2 0 1 1 3 3 2 3 1 1 2 3 2 4 3 5 6 3 5 3 4 7 8 9 7 8 8 7 5 10 10 6 4 6 12 8 6 7 6 6 7 5 2 2 3 4 4 4 3 2 1
4 3 3 4 4 2 2 2 1 2 3 5 1 3 2 1 2 4 1 3 1 2 3 2 1 2 2 2 1 2 2 3 2 1 1 1 1 2 1 2 0 1 3 1 0 1 2 1 4 2 2 7 4 3 4 6 5 10 10 7 4 5 7 7 5 3 1 8 3 2 8 12 3 4 5 3 1 2 1 4 4 2 2 4 4 4 3 2
2 1 0 2 2 4 3 3 3 3 2 4 3 2 1 2 2 1 2 3 3 2 4 1 3 0 2 2 5 3 1 2 4 5 3 5 1 1 1 0 2 4 3 2 1 1 1 1 1 1 5 4 4 10 9 5 9 11 11 5 7 7 6 5 4 7 6 7 5 7 7 6 8 6 0 1 3 5 6 4 2 2 2 3 4 3 2 1
1 1 1 1 1 3 3 1 1 0 2 1 2 2 2 3 3 1 2 1 3 4 1 3 2 1 1 3 4 4 6 5 7 7 5 4 1 1 1 1 2 2 2 0 1 2 1 1 1 0 4 6 4 4 5 7 9 14 9 9 15 12 9 2 2 2 10 8 6 6 9 3 3 0 6 6 5 4 1 1 1 1 2 3 4 4 2 2
Wind_Direction
336 332 331 331 324 324 327 323 321 316 308 309 312 312 313 317 320 318 317 315 311 316 320 316 320 320 323 327 330 330 351 330 319 343 304 244 178 169 170 304 159 178 181 101 91 141 53 28 125 351 130 194 3 204 4 162 50 199 126 111 196 127 211 194 219 198 43 296 317 310 25 292 282 104 89 121 105 116 120 95 62 67 56 122 120 141 145 143
336 334 333 331 331 327 326 321 316 309 309 312 316 313 311 314 315 314 319 321 318 314 321 323 320 322 327 328 329 350 347 311 296 282 238 219 179 164 152 113 130 153 151 94 106 98 119 72 49 100 147 141 323 40 300 113 279 135 115 205 240 180 248 188 192 233 275 306 307 304 310 264 224 154 155 158 139 140 131 97 95 90 110 116 136 143 147 146
335 335 334 336 333 326 322 319 317 313 312 311 305 309 313 310 312 315 319 324 317 316 318 321 325 328 325 328 329 3 339 311 256 279 289 210 213 180 155 133 134 162 183 146 194 138 123 164 170 135 30 111 3 114 347 74 224 97 211 208 242 205 265 228 216 266 227 282 292 311 336 288 136 227 141 167 153 159 158 145 133 136 143 149 147 149 149 146
333 333 333 327 330 329 327 326 322 321 314 310 309 311 313 310 309 311 316 317 314 314 318 323 326 325 327 326 336 352 312 282 79 344 273 236 188 180 168 147 133 123 102 67 138 103 108 105 85 103 105 76 63 287 185 127 223 130 211 228 259 172 260 252 190 240 261 221 268 302 301 214 215 216 165 142 141 206 199 189 162 164 158 154 156 152 151 145
334 332 331 329 327 326 331 322 316 310 309 306 307 306 304 305 304 308 311 309 311 317 321 327 324 326 327 326 347 304 305 239 65 250 279 345 164 152 155 154 140 129 93 136 107 63 72 76 95 47 90 144 29 116 206 113 309 141 235 237 229 143 260 264 261 246 250 207 258 285 317 340 17 167 157 163 178 187 187 197 341 156 153 155 159 155 153 148
332 332 326 324 325 325 324 323 318 317 312 309 305 303 302 304 310 311 313 311 316 318 322 323 324 326 326 337 321 143 247 64 276 272 11 89 129 140 144 145 132 112 123 87 92 62 122 49 102 83 75 141 146 191 110 220 162 236 175 248 236 238 267 302 264 213 145 295 291 302 329 273 254 150 180 184 187 29 13 327 138 163 163 159 154 153 156 159
330 327 326 323 322 321 320 319 318 314 310 310 307 302 302 304 311 311 312 311 310 317 321 319 324 325 333 357 128 289 44 288 290 290 35 126 133 134 134 133 132 113 100 100 56 87 52 109 89 117 105 92 145 229 69 206 197 229 262 16 278 172 229 247 260 262 282 272 273 112 36 268 238 171 179 186 151 314 318 174 132 148 158 158 157 163 163 165
327 326 325 324 322 318 317 318 316 315 312 311 312 309 306 304 301 301 299 306 313 311 312 320 327 324 337 329 229 340 60 351 297 11 111 135 129 125 112 93 124 112 111 139 142 130 130 119 128 173 59 93 125 201 88 205 109 196 255 216 263 184 233 252 260 291 272 256 264 294 260 284 173 303 145 201 300 345 121 145 132 144 155 161 160 158 154 154
326 325 325 321 316 316 314 313 314 314 313 317 320 321 308 303 297 297 302 306 308 304 312 323 323 344 330 276 119 48 65 242 340 36 123 130 128 131 142 114 235 121 116 121 99 141 187 199 125 228 53 229 148 264 155 218 211 197 237 186 254 260 262 282 295 279 264 266 191 221 46 36 310 35 176 54 14 64 128 132 136 144 157 165 168 161 155 158
326 323 319 316 315 313 313 309 310 311 312 312 317 320 317 310 302 302 303 298 296 307 313 319 322 13 14 215 232 65 255 88 58 109 126 145 130 119 38 127 132 118 142 150 103 134 195 177 97 175 126 93 170 246 60 186 34 177 235 232 265 279 323 350 255 297 319 299 344 226 82 7 28 247 140 64 46 130 127 135 145 149 160 167 168 164 169 165
326 321 319 315 313 313 310 308 307 308 310 311 315 319 322 315 310 301 295 296 297 303 311 315 337 15 30 287 54 98 84 102 103 125 140 205 139 140 147 151 149 142 126 103 184 193 215 154 169 130 178 70 178 252 192 232 105 202 251 282 254 295 241 267 247 282 263 78 336 261 79 271 327 292 29 345 54 187 136 145 154 152 154 162 166 169 166 163
324 321 317 313 310 308 307 305 303 305 306 308 309 313 320 321 309 304 291 294 302 304 306 298 356 353 324 305 204 139 280 294 135 140 155 181 116 167 142 159 165 149 152 153 218 202 200 162 170 15 355 172 306 99 210 185 251 291 275 295 309 341 137 8 8 17 299 68 288 231 126 100 341 121 356 333 240 154 134 143 159 159 153 155 159 161 168 172
322 319 317 313 310 306 305 304 306 305 309 308 309 307 307 307 304 292 293 288 294 327 351 324 322 337 277 299 219 220 245 155 138 128 128 51 110 71 134 168 163 150 149 128 181 211 208 155 103 144 156 198 278 323 108 68 267 204 73 347 292 353 56 19 312 9 200 36 289 210 250 127 280 304 320 342 165 139 129 146 159 158 154 157 162 169 173 173
322 320 317 313 306 303 305 306 303 306 305 309 307 305 306 308 304 291 282 279 285 281 294 355 22 303 240 241 268 214 198 137 121 127 164 324 128 43 84 53 68 70 34 50 353 30 182 49 139 84 96 216 251 291 243 320 5 293 349 50 28 297 44 9 19 311 133 343 346 203 287 310 246 351 21 6 207 161 150 153 163 164 163 164 172 176 184 191
324 320 315 310 307 305 304 305 309 310 310 308 305 302 296 288 284 279 274 273 252 241 264 239 44 284 20 280 273 274 134 133 152 205 173 151 152 115 176 82 167 154 82 97 10 52 113 128 131 162 254 16 276 297 288 345 24 14 224 61 21 339 68 337 33 19 51 87 340 42 289 276 341 343 356 27 212 197 157 166 170 173 174 174 180 187 192 194
323 321 314 310 307 303 306 308 309 309 314 313 310 305 293 271 252 235 219 181 140 92 58 274 234 283 204 34 112 111 139 256 54 231 198 168 165 157 111 141 143 120 170 84 245 152 23 90 40 42 292 179 129 101 42 156 63 25 353 108 344 321 18 294 64 73 76 283 43 354 283 303 102 17 23 20 188 202 175 174 175 179 176 180 188 193 196 184
324 316 314 307 305 306 306 306 308 313 320 320 319 310 287 247 186 183 176 175 200 71 234 150 257 215 55 152 333 197 300 282 189 101 112 275 154 134 126 101 62 64 85 107 77 125 46 154 357 187 46 66 5 39 283 51 201 75 343 85 328 21 355 97 321 70 -0 19 358 32 222 248 30 317 358 100 188 190 191 185 186 184 187 192 193 196 197 201
321 318 310 309 306 306 307 307 311 314 322 334 336 345 99 132 131 107 95 95 129 210 301 249 279 291 269 334 119 355 333 286 330 100 83 175 134 110 90 93 255 91 70 95 61 134 340 234 337 133 328 6 14 65 49 255 102 154 131 120 132 191 258 323 295 14 352 42 44 343 235 280 284 296 232 153 133 208 208 202 196 192 192 195 203 205 206 208
323 316 313 310 309 306 309 311 311 316 326 350 15 86 105 107 113 211 132 175 185 314 303 114 187 347 145 241 303 285 238 224 100 189 144 132 137 98 81 84 59 316 65 74 19 95 5 133 104 56 278 352 35 52 155 68 164 250 173 116 136 195 135 280 192 22 358 342 81 121 322 318 312 289 262 144 107 189 201 195 214 215 206 208 212 219 218 220
324 316 314 310 308 304 310 312 314 317 326 125 105 93 162 330 353 83 154 1 217 238 273 247 108 276 295 265 300 296 239 24 161 16 86 181 131 132 43 31 22 54 78 169 357 61 304 109 234 242 252 238 198 214 156 144 139 89 77 139 148 195 245 265 269 44 344 211 159 25 285 267 285 280 275 28 15 163 183 197 197 204 208 207 212 218 224 229
320 321 313 311 305 314 304 312 310 322 356 164 149 177 46 165 45 329 319 260 214 236 241 233 199 242 269 355 291 338 15 332 46 50 155 130 113 157 12 10 26 117 46 323 162 10 232 62 248 218 227 226 30 141 114 98 69 158 149 180 154 226 203 102 54 24 10 266 98 154 277 252 273 298 293 337 155 205 189 194 206 204 212 214 216 220 220 224
329 317 317 309 312 310 318 293 319 348 62 108 197 114 149 183 299 20 85 315 313 232 227 266 356 270 300 248 239 130 120 3 128 276 339 190 61 203 296 94 141 173 61 182 192 80 60 221 274 229 155 99 90 126 148 159 139 107 206 179 217 222 282 296 252 308 358 210 112 154 300 285 286 283 292 251 210 235 192 205 204 197 201 211 217 225 230 221
330 326 313 316 313 316 319 354 164 97 187 184 113 101 119 314 173 265 137 162 271 229 180 110 205 247 288 267 266 170 111 204 205 244 182 141 97 256 140 139 121 82 100 152 223 156 275 314 197 102 148 124 74 104 131 100 96 154 156 189 235 73 282 177 168 296 21 20 343 346 292 286 306 248 270 290 272 306 324 235 265 230 208 206 211 211 212 221
336 326 321 314 313 331 310 77 68 161 217 236 195 137 141 185 86 148 150 276 320 311 208 214 211 199 227 321 182 149 165 215 127 266 21 163 134 150 130 137 98 164 197 173 170 190 242 122 101 122 157 169 142 155 157 172 185 222 212 237 222 189 212 248 340 329 269 120 352 247 238 253 39 106 119 128 319 297 315 330 223 224 247 262 297 282 238 223
336 332 321 318 318 310 276 290 193 229 139 135 243 255 245 220 197 188 115 324 186 278 278 310 188 238 205 118 71 241 215 61 240 297 223 139 131 128 34 132 178 224 122 124 99 110 272 299 155 121 129 130 141 164 209 169 208 187 221 212 212 188 187 241 291 283 343 197 49 2 296 226 356 324 234 6 326 225 229 278 238 248 239 242 236 237 235 242
339 328 328 316 313 321 267 309 236 132 209 232 137 153 233 233 198 189 103 77 99 296 329 99 209 102 181 119 140 158 78 292 39 244 189 259 128 136 126 95 9 281 162 176 216 274 7 68 202 177 151 146 193 220 215 200 179 173 235 190 178 164 122 138 156 229 318 316 53 342 290 286 324 319 112 347 319 301 266 231 75 41 227 213 234 241 234 231
338 332 322 325 317 335 146 135 327 175 34 258 248 289 288 246 175 148 253 2 70 309 21 279 275 69 150 199 148 139 173 123 7 56 97 276 250 3 179 164 85 57 135 172 51 169 134 98 79 53 106 138 183 268 195 179 155 205 74 147 142 143 164 173 137 163 75 5 267 38 357 279 286 293 87 255 269 283 318 359 7 48 258 262 256 245 241 241
337 330 323 309 333 237 282 342 291 187 211 266 304 339 337 179 127 52 79 72 285 280 25 287 277 235 262 342 25 191 307 288 72 138 226 303 183 25 355 187 190 169 153 167 296 101 171 152 184 175 146 178 272 236 155 195 175 347 122 167 140 159 136 137 140 104 32 287 273 123 81 264 232 276 94 327 0 4 353 351 333 332 315 276 260 264 274 271
336 326 310 310 300 271 229 254 290 227 231 270 313 337 38 84 106 121 142 112 177 64 222 99 77 119 346 50 70 19 308 350 40 317 317 90 40 215 183 203 144 126 18 246 254 202 248 218 216 187 189 258 217 233 171 169 201 75 128 96 94 87 71 53 119 116 80 269 265 246 78 273 286 255 358 9 38 335 334 327 319 325 326 323 317 307 280 271
332 323 293 266 180 225 234 194 236 251 292 307 343 15 69 57 14 112 0 204 352 120 331 276 345 295 26 109 355 11 301 10 341 320 34 138 10 53 41 109 137 133 164 22 272 272 332 293 247 209 214 225 121 45 154 103 47 123 183 104 74 54 62 61 53 99 129 225 254 76 359 261 286 322 23 353 18 311 312 308 311 327 332 328 323 317 308 297
324 310 277 166 196 183 157 277 250 244 261 325 51 72 77 42 143 87 132 226 311 302 316 17 347 18 31 50 74 344 94 345 359 356 139 348 59 39 111 178 84 66 53 352 253 337 316 95 184 227 33 112 128 90 55 49 130 159 177 137 112 98 54 87 55 50 228 253 202 6 196 182 247 182 153 250 292 280 272 283 306 316 316 316 319 323 324 313
319 303 218 182 241 330 177 129 284 180 301 285 59 64 89 242 26 157 188 350 130 343 50 299 7 56 22 342 81 2 12 346 16 27 18 17 61 276 45 219 85 290 237 36 313 343 286 189 49 313 230 177 145 98 83 95 156 200 129 136 236 209 44 218 185 220 207 260 64 12 276 193 226 272 329 336 314 310 289 289 302 306 307 314 320 328 328 325
319 273 200 206 229 257 243 271 325 300 339 36 68 42 66 96 212 247 269 332 164 247 89 164 316 12 317 54 17 350 275 46 326 104 274 46 136 43 238 333 259 210 274 71 310 351 282 237 275 258 163 188 197 214 126 186 180 194 200 156 203 233 148 255 201 5 304 243 55 282 13 265 9 286 243 309 338 336 330 321 316 313 311 312 320 331 339 343
341 160 155 202 208 240 285 307 337 338 14 41 87 36 59 75 231 156 324 251 49 16 66 12 1 97 35 83 9 338 92 320 360 343 18 24 57 30 34 84 25 30 60 124 279 91 309 339 101 189 141 40 226 236 196 312 168 200 28 185 213 198 201 232 218 246 262 318 56 74 216 225 212 101 20 34 350 343 343 320 321 316 319 312 311 340 3 2
52 111 165 128 230 248 245 248 250 319 91 62 59 84 131 230 250 199 240 306 277 279 128 327 82 62 45 42 325 356 5 160 66 316 30 15 31 84 4 15 5 107 88 204 166 44 278 259 264 268 0 77 252 352 96 112 83 71 226 50 146 220 129 254 6 274 243 159 174 172 249 332 299 2 315 310 343 344 342 335 316 335 346 326 348 18 16 12
192 14 228 236 233 252 213 218 161 154 104 56 78 60 160 198 74 184 110 197 309 246 314 47 64 85 330 330 321 55 6 6 2 39 58 31 3 34 304 254 22 343 3 291 155 195 136 244 304 320 144 272 150 218 258 230 237 148 162 201 209 32 125 90 106 66 63 20 240 84 261 196 258 230 164 76 339 318 324 330 0 9 1 4 26 12 14 15
7 340 42 337 310 336 316 139 138 105 66 95 101 209 197 240 219 181 229 230 314 125 43 183 0 83 122 295 281 343 340 6 24 10 1 188 130 351 334 343 251 291 8 248 246 232 267 286 303 167 271 80 295 96 64 29 75 113 214 176 115 134 45 159 232 84 116 236 242 124 208 176 176 198 163 192 211 281 7 18 11 19 10 21 12 10 8 12
354 16 71 20 334 329 357 131 71 55 74 84 122 190 243 110 188 232 137 111 132 42 108 85 32 8 213 201 268 212 349 358 340 36 341 340 85 339 103 318 304 43 334 245 246 54 209 274 286 11 283 311 9 229 70 78 341 276 332 129 207 195 206 67 110 193 189 211 239 182 216 253 217 201 151 191 195 175 54 13 29 28 16 8 358 358 4 8
96 70 172 342 326 335 243 128 75 68 72 62 201 144 215 267 199 163 230 178 95 136 167 254 143 304 125 174 209 288 259 342 125 1 286 170 176 64 44 1 253 12 338 198 187 110 317 262 290 153 187 345 320 115 227 132 68 57 131 127 23 263 235 182 205 3 235 250 111 209 172 232 189 190 179 175 193 185 118 84 55 34 28 7 354 353 359 7
27 22 321 200 342 7 207 95 56 53 73 161 186 218 191 171 232 225 251 203 251 145 236 156 238 133 231 248 170 17 155 177 163 165 289 343 129 31 32 332 293 312 28 291 131 297 148 14 263 31 274 300 214 272 247 189 168 138 173 152 135 51 342 11 71 223 231 189 206 197 220 214 173 180 174 177 185 174 176 128 110 63 39 22 2 354 354 10
236 102 267 328 349 329 53 49 52 70 119 357 205 176 256 99 254 285 342 14 106 334 147 184 162 189 188 142 237 193 150 129 160 169 208 162 214 232 140 310 165 285 341 255 85 33 113 164 240 331 314 258 302 47 309 197 347 268 212 206 181 150 176 194 218 107 259 203 199 175 232 187 98 132 193 158 165 152 187 196 122 84 50 4 359 6 359 4
52 5 271 343 349 96 102 72 42 291 94 164 144 177 123 63 99 338 340 358 71 96 17 102 13 126 134 157 74 160 154 183 154 237 229 214 112 47 150 155 253 247 326 76 28 120 306 128 264 256 267 283 5 41 296 269 179 147 275 257 131 22 137 209 236 178 154 164 58 312 349 230 92 163 196 160 326 169 129 246 127 105 87 22 357 359 6 17
50 233 264 332 358 94 73 63 345 75 127 263 316 271 306 50 105 203 217 357 14 41 26 47 158 168 248 250 160 147 191 194 171 221 66 156 134 146 260 319 285 162 214 72 154 180 177 254 239 263 300 283 15 324 20 226 191 177 89 80 207 219 233 243 255 144 192 120 186 156 229 203 143 78 109 153 230 204 196 205 152 133 124 85 21 4 6 18
229 272 323 297 8 115 104 221 187 184 288 327 47 21 344 69 44 21 37 358 51 356 94 113 82 34 90 338 119 160 182 205 307 114 171 198 148 157 341 337 331 67 352 46 279 82 275 157 237 296 322 306 271 175 184 131 142 63 276 45 355 64 75 81 95 85 231 188 200 177 249 150 170 89 95 134 143 150 140 134 173 143 137 103 49 8 0 10
251 252 248 302 348 39 167 142 150 135 76 86 23 51 352 57 16 41 303 33 359 99 143 68 16 282 76 34 90 114 40 354 98 7 51 213 3 333 323 13 334 73 319 234 257 86 234 198 161 254 256 247 241 234 251 251 278 327 194 274 104 235 145 164 221 156 231 78 188 220 261 147 76 155 94 64 95 127 121 135 141 112 130 131 93 26 7 11
36 354 315 336 14 32 77 23 64 121 109 145 61 11 69 51 115 350 86 75 353 82 36 171 71 85 79 127 111 50 115 36 290 145 181 165 269 294 249 3 30 1 317 57 28 164 155 60 227 229 244 255 255 270 49 11 314 263 263 251 208 62 358 34 63 162 234 146 216 182 291 310 195 187 196 143 183 190 173 171 167 164 157 135 123 10 7 7
177 66 357 337 334 44 77 28 19 4 84 168 110 336 39 336 297 342 40 143 29 57 61 37 359 220 218 99 128 125 352 222 59 131 86 189 254 280 313 316 268 336 349 5 16 106 88 261 208 220 246 260 303 277 173 216 274 276 269 253 196 187 194 196 189 238 109 119 253 143 227 233 205 208 207 184 199 218 206 182 173 176 163 163 163 226 290 0
59 229 75 146 357 350 358 21 18 31 29 34 91 51 63 343 13 65 347 64 309 7 182 159 60 44 126 198 141 155 117 79 13 188 49 224 302 327 95 61 59 341 341 39 332 232 134 252 200 169 254 246 213 259 221 253 244 267 258 269 263 215 180 209 221 166 165 208 266 155 191 203 207 209 211 213 185 194 201 194 181 142 140 162 177 191 185 168
96 24 132 300 243 339 303 297 347 62 50 35 102 37 59 54 56 48 333 328 22 19 14 152 4 33 27 9 94 152 139 187 249 293 212 150 338 334 329 31 162 339 17 32 33 43 180 249 197 185 258 249 247 248 223 223 251 236 235 238 241 240 229 233 240 197 203 229 245 212 205 223 201 218 215 226 207 188 168 114 125 183 179 158 172 190 191 200
23 360 342 1 72 111 347 19 54 23 70 346 73 19 85 32 43 5 72 14 5 5 342 91 343 44 50 67 55 66 12 16 320 27 187 152 169 210 266 237 0 107 6 46 16 57 226 274 106 175 263 258 278 238 181 221 213 253 246 235 238 239 254 246 257 251 20 283 273 203 226 243 240 251 254 57 86 104 121 196 200 173 135 170 180 193 193 205
330 332 328 320 34 342 344 19 25 21 79 8 53 24 71 27 53 340 63 359 36 339 353 343 334 122 78 71 62 91 91 340 271 294 268 178 325 203 222 350 145 308 9 19 69 22 157 269 61 242 275 261 205 256 257 221 236 247 248 238 241 214 232 202 216 203 201 231 221 220 241 252 244 217 244 182 161 185 198 189 173 183 191 181 197 203 213 240
290 208 354 261 88 0 8 355 51 289 69 44 359 358 45 42 332 257 118 74 87 58 351 279 287 85 48 61 57 344 318 279 266 265 269 272 353 192 230 283 184 277 307 21 42 263 230 192 213 171 255 261 219 237 276 289 297 267 238 202 229 231 227 212 235 144 215 214 223 211 234 255 346 205 210 205 184 166 138 153 193 201 232 206 214 221 241 278